User: anonymous   Login
Location: Lecco
(45.8566°N, 9.3977°E)
Time: 11:20:03
(UTC+02:00)
Language:

Altair - Orbit

View from above orbital plane
View from above orbital plane
View from above satellite
View from above satellite

Ground track
Ground track

The orbit data is extracted from the following two-line orbital elements,

1    50U 60009B   20226.88567505 -.00000111 +00000-0 -23507-3 0  9991
2    50 047.2318 303.0234 0113632 137.1786 223.7920 12.20112320677230
Epoch (UTC): 13 August 2020 21:15:22
Eccentricity: 0.0113632
inclination: 47.2318°
perigee height: 1501 km
apogee height: 1682 km
right ascension of ascending node: 303.0234°
argument of perigee: 137.1786°
revolutions per day: 12.20112320
mean anomaly at epoch: 223.7920°
orbit number at epoch: 67723

The dashed part of the orbit path shows where the satellite is in the earth's shadow,  

DLR